EW7772 Weather Reports


Display with metric or nautical units.
time (UTC)temp
F
wind
direction
speed
MPH
gust
MPH
rain 1hr
in
rain 24hr
in
rain mn
in
humidity
%
barometer
mb
20260504023006 54 360 0.0 1.0 0.00 0.00 0.00 67 1014.4
20260504021506 54 271 0.0 1.0 0.00 0.00 0.00 67 1014.4
20260504020006 54 271 0.0 2.0 0.00 0.00 0.00 66 1014.4
20260504014515 54 271 0.0 0.0 0.00 0.00 0.00 68 1014.4
20260504013006 54 271 0.0 0.0 0.00 0.00 0.00 68 1014.4
20260504011504 54 271 0.0 1.0 0.00 0.00 0.00 67 1014.4
20260504010004 53 271 0.0 0.0 0.00 0.00 0.00 69 1014.3
20260504004502 53 271 0.0 1.0 0.00 0.00 0.00 69 1014.4
20260504003001 53 271 0.0 0.0 0.00 0.00 0.00 70 1014.6
20260504001612 53 271 0.0 0.0 0.00 0.00 0.00 71 1014.6
20260504000106 53 271 0.0 0.0 0.00 0.00 0.00 70 1014.8
20260503234555 54 271 0.0 0.0 0.00 0.00 0.00 68 1014.9
20260503233053 54 271 0.0 0.0 0.00 0.00 0.00 68 1014.9
20260503231554 55 271 0.0 0.0 0.00 0.00 0.00 68 1015.1
20260503230049 55 271 0.0 0.0 0.00 0.00 0.00 65 1015.0
20260503224550 56 271 0.0 0.0 0.00 0.00 0.00 63 1015.1
20260503223045 57 271 0.0 0.0 0.00 0.00 0.00 61 1015.2
20260503221541 57 271 0.0 0.0 0.00 0.00 0.00 60 1015.0
20260503220040 58 271 0.0 0.0 0.00 0.00 0.00 57 1014.9
20260503214544 59 271 0.0 0.0 0.00 0.00 0.00 54 1014.9
20260503213052 60 271 0.0 0.0 0.00 0.00 0.00 53 1014.9
20260503211556 60 271 0.0 0.0 0.00 0.00 0.00 51 1014.8
20260503210036 61 271 0.0 0.0 0.00 0.00 0.00 51 1014.6
20260503204552 61 271 0.0 1.0 0.00 0.00 0.00 49 1014.5
20260503203037 61 271 0.0 1.0 0.00 0.00 0.00 49 1014.3
20260503201538 62 271 0.0 2.0 0.00 0.00 0.00 48 1014.4
20260503200034 63 271 0.0 4.0 0.00 0.00 0.00 47 1014.2
20260503194534 63 290 0.0 1.0 0.00 0.00 0.00 46 1014.0
20260503193034 64 290 1.0 3.0 0.00 0.00 0.00 44 1014.0
20260503191546 65 269 0.0 4.0 0.00 0.00 0.00 45 1013.8
20260503190039 66 273 0.0 5.0 0.00 0.00 0.00 45 1013.6
20260503184535 67 286 1.0 10.0 0.00 0.00 0.00 48 1013.4
20260503183040 68 254 0.0 1.0 0.00 0.00 0.00 54 1012.7
20260503181532 68 254 0.0 1.0 0.00 0.00 0.00 52 1012.5
20260503180034 69 265 0.0 2.0 0.00 0.00 0.00 50 1012.4
20260503174541 70 265 0.0 1.0 0.00 0.00 0.00 48 1012.2
20260503173030 71 231 0.0 4.0 0.00 0.00 0.00 46 1012.1
20260503171533 72 269 0.0 3.0 0.00 0.00 0.00 42 1012.1
20260503081538 65 360 0.0 1.0 0.00 0.00 0.00 54 1015.6
20260503071512 61 5 0.0 0.0 0.00 0.00 0.00 62 1015.6
20260503060122 54 351 0.0 0.0 0.00 0.00 0.00 72 1015.5
20260503054600 50 351 0.0 0.0 0.00 0.00 0.00 78 1015.5
20260503053057 48 351 0.0 0.0 0.00 0.00 0.00 82 1015.5
20260503051556 47 351 0.0 0.0 0.00 0.00 0.00 81 1015.5
20260503044555 46 351 0.0 0.0 0.00 0.00 0.00 81 1015.6
20260503043054 46 351 0.0 0.0 0.00 0.00 0.00 80 1015.5
20260503041553 46 351 0.0 0.0 0.00 0.00 0.00 80 1015.6
20260503040055 46 351 0.0 0.0 0.00 0.00 0.00 79 1015.4
20260503034554 47 351 0.0 0.0 0.00 0.00 0.00 79 1015.4
20260503033058 47 351 0.0 0.0 0.00 0.00 0.00 79 1015.3
20260503031549 47 351 0.0 0.0 0.00 0.00 0.00 79 1015.4
20260503030049 47 351 0.0 0.0 0.00 0.00 0.00 78 1015.4
20260503024550 48 351 0.0 0.0 0.00 0.00 0.00 77 1015.5